L'Estartit (Baix Empordà)





Hora UTC 03:15
Temperatura 18.7 ºC
Humitat 84.0 %
Pressió 1015.6 hPa
Pluja 0.0 mm
Velocitat vent 0.0 km/h
Direcció vent

Dades diàries 2024-05-30



Hora UTC (hivern +1h; estiu +2h)
Temperatura (ºC) Humitat (%) Pressió (hPa) Velocitat vent (km/h) Precipitació (mm)
Hora UTC Aire Humitat Pressió Vel. Dir. Vel. Max Dir. Intent. màx 5 min.
00:05 20.2 73.0 1017.2 0.0 0.0 0.0
00:15 20.3 73.0 1017.0 0.0 4.8 0.0
00:25 20.3 73.0 1017.0 0.0 4.8 0.0
00:35 20.3 73.0 1017.0 0.0 4.8 0.0
00:45 20.2 74.0 1016.8 0.0 6.4 0.0
00:55 20.1 75.0 1016.7 0.0 6.4 0.0
01:05 20.1 75.0 1016.7 0.0 6.4 0.0
01:15 20.0 76.0 1016.6 0.0 6.4 0.0
01:25 19.9 77.0 1016.5 1.6 8.0 0.0
01:35 19.9 77.0 1016.5 1.6 8.0 0.0
01:45 19.6 79.0 1016.4 4.8 8.0 0.0
01:55 19.5 80.0 1016.3 8.0 9.7 0.0
02:05 19.5 80.0 1016.3 8.0 9.7 0.0
02:15 19.4 81.0 1016.1 8.0 12.9 0.0
02:25 19.3 81.0 1016.0 6.4 12.9 0.0
02:35 19.3 81.0 1016.0 6.4 12.9 0.0
02:45 19.2 82.0 1016.0 1.6 12.9 0.0
02:55 19.0 83.0 1015.8 0.0 12.9 0.0
03:05 19.0 83.0 1015.8 0.0 12.9 0.0
03:15 18.7 84.0 1015.6 0.0 12.9 0.0
Màxima 20.9 84.0 1017.2 8.0 12.9 0.0
Mínima 18.7 73.0 1015.6
Total 0.0